When you browse on this site, cookies collect data to enhance your experience and personalize the content and advertising you see.
Visit our Privacy Policy to learn more. By continuing to use the site, you agree to this use of cookies and data.

Hourly Weather Jewłach

Today, 11 July, Saturday

Time Temperature Precipitation Wind Pressure Humidity
00:00 +29°C° 0.1 mm 4 mps 760 mmHg 53%
01:00 +29°C° 0.2 mm 3 mps 760 mmHg 57%
02:00 +28°C° 0.2 mm 3 mps 760 mmHg 60%
03:00 +27°C° 0.2 mm 2 mps 760 mmHg 64%
04:00 +27°C° 0.6 mm 2 mps 760 mmHg 66%
05:00 +27°C° 0.6 mm 2 mps 760 mmHg 68%
06:00 +26°C° 0.6 mm 3 mps 760 mmHg 71%
07:00 +27°C° 0.4 mm 3 mps 760 mmHg 68%
08:00 +28°C° 0.4 mm 3 mps 760 mmHg 65%
09:00 +28°C° 0.4 mm 3 mps 760 mmHg 62%
10:00 +30°C° 0 mm 3 mps 760 mmHg 56%
11:00 +31°C° 0 mm 3 mps 760 mmHg 51%
12:00 +33°C° 0 mm 3 mps 759 mmHg 45%
13:00 +34°C° 0 mm 4 mps 759 mmHg 41%
14:00 +35°C° 0 mm 4 mps 758 mmHg 38%
15:00 +36°C° 0 mm 5 mps 758 mmHg 35%
16:00 +36°C° 0 mm 4 mps 758 mmHg 35%
17:00 +35°C° 0 mm 4 mps 758 mmHg 36%
18:00 +35°C° 0 mm 4 mps 757 mmHg 36%
19:00 +34°C° 0.3 mm 3 mps 758 mmHg 41%
20:00 +33°C° 0.3 mm 3 mps 758 mmHg 45%
21:00 +30°C° 0.3 mm 2 mps 758 mmHg 49%
22:00 +30°C° 0 mm 2 mps 758 mmHg 50%
23:00 +29°C° 0 mm 3 mps 758 mmHg 52%

Tomorrow, 12 July, Sunday

Time Temperature Precipitation Wind Pressure Humidity
00:00 +28°C° 0 mm 3 mps 758 mmHg 53%
01:00 +28°C° 0 mm 3 mps 758 mmHg 54%
02:00 +27°C° 0 mm 3 mps 757 mmHg 56%
03:00 +27°C° 0 mm 3 mps 757 mmHg 57%
04:00 +27°C° 0 mm 3 mps 757 mmHg 56%
05:00 +27°C° 0 mm 2 mps 757 mmHg 54%
06:00 +28°C° 0 mm 2 mps 757 mmHg 53%
07:00 +29°C° 0 mm 2 mps 757 mmHg 47%
08:00 +31°C° 0 mm 2 mps 757 mmHg 41%
09:00 +34°C° 0 mm 2 mps 757 mmHg 35%
10:00 +35°C° 0 mm 2 mps 756 mmHg 32%
11:00 +37°C° 0 mm 3 mps 756 mmHg 28%
12:00 +38°C° 0 mm 4 mps 755 mmHg 25%
13:00 +40°C° 0 mm 5 mps 754 mmHg 24%
14:00 +40°C° 0 mm 5 mps 754 mmHg 24%
15:00 +41°C° 0 mm 5 mps 753 mmHg 23%
16:00 +40°C° 0 mm 6 mps 753 mmHg 24%
17:00 +39°C° 0 mm 6 mps 753 mmHg 25%
18:00 +39°C° 0 mm 6 mps 753 mmHg 26%
19:00 +36°C° 0 mm 6 mps 753 mmHg 31%
20:00 +34°C° 0 mm 6 mps 753 mmHg 36%
21:00 +32°C° 0 mm 6 mps 753 mmHg 40%
22:00 +32°C° 0 mm 5 mps 754 mmHg 43%
23:00 +30°C° 0 mm 4 mps 754 mmHg 46%

Day after tomorrow, 13 July, Monday

Time Temperature Precipitation Wind Pressure Humidity
00:00 +29°C° 0 mm 3 mps 754 mmHg 49%
01:00 +28°C° 0 mm 2 mps 753 mmHg 51%
02:00 +28°C° 0 mm 2 mps 753 mmHg 53%
03:00 +27°C° 0 mm 1 mps 753 mmHg 54%
04:00 +28°C° 0 mm 1 mps 753 mmHg 53%
05:00 +28°C° 0 mm 1 mps 753 mmHg 53%
06:00 +28°C° 0 mm 1 mps 752 mmHg 52%
07:00 +30°C° 0 mm 2 mps 752 mmHg 48%
08:00 +31°C° 0 mm 2 mps 752 mmHg 45%
09:00 +32°C° 0 mm 2 mps 752 mmHg 41%
10:00 +35°C° 0 mm 2 mps 751 mmHg 37%
11:00 +36°C° 0 mm 2 mps 751 mmHg 33%
12:00 +38°C° 0 mm 2 mps 751 mmHg 29%
13:00 +38°C° 0 mm 2 mps 750 mmHg 28%
14:00 +39°C° 0 mm 2 mps 750 mmHg 27%
15:00 +40°C° 0 mm 2 mps 750 mmHg 25%
16:00 +39°C° 0 mm 3 mps 750 mmHg 27%
17:00 +39°C° 0 mm 3 mps 750 mmHg 28%
18:00 +38°C° 0 mm 4 mps 750 mmHg 30%
19:00 +36°C° 0.4 mm 4 mps 751 mmHg 38%
20:00 +34°C° 0.4 mm 4 mps 751 mmHg 47%
21:00 +32°C° 0.4 mm 4 mps 752 mmHg 56%
22:00 +30°C° 0.3 mm 3 mps 752 mmHg 61%
23:00 +29°C° 0.3 mm 2 mps 752 mmHg 65%

14 July, Tuesday

Time Temperature Precipitation Wind Pressure Humidity
00:00 +28°C° 0.3 mm 1 mps 752 mmHg 70%
01:00 +28°C° 0.2 mm 2 mps 752 mmHg 69%
02:00 +28°C° 0.2 mm 4 mps 752 mmHg 68%
03:00 +28°C° 0.2 mm 5 mps 752 mmHg 68%
04:00 +28°C° 0.2 mm 5 mps 752 mmHg 67%
05:00 +28°C° 0.2 mm 6 mps 753 mmHg 67%
06:00 +28°C° 0.2 mm 6 mps 753 mmHg 66%
07:00 +29°C° 0.3 mm 6 mps 753 mmHg 64%
08:00 +29°C° 0.3 mm 6 mps 753 mmHg 61%
09:00 +30°C° 0.3 mm 5 mps 754 mmHg 58%
10:00 +33°C° 0 mm 5 mps 754 mmHg 52%
11:00 +34°C° 0 mm 5 mps 753 mmHg 47%
12:00 +36°C° 0 mm 5 mps 753 mmHg 41%
13:00 +37°C° 0 mm 5 mps 753 mmHg 38%
14:00 +37°C° 0 mm 5 mps 753 mmHg 36%
15:00 +39°C° 0 mm 5 mps 753 mmHg 33%
16:00 +38°C° 0 mm 4 mps 753 mmHg 33%
17:00 +37°C° 0 mm 3 mps 754 mmHg 33%
18:00 +37°C° 0 mm 3 mps 754 mmHg 33%
19:00 +35°C° 0.2 mm 3 mps 754 mmHg 43%
20:00 +33°C° 0.2 mm 3 mps 755 mmHg 52%
21:00 +29°C° 0.2 mm 3 mps 756 mmHg 62%
22:00 +29°C° 0.3 mm 3 mps 756 mmHg 61%
23:00 +29°C° 0.3 mm 3 mps 756 mmHg 61%

15 July, Wednesday

Time Temperature Precipitation Wind Pressure Humidity
00:00 +28°C° 0.3 mm 4 mps 757 mmHg 61%
01:00 +28°C° 0.3 mm 4 mps 757 mmHg 62%
02:00 +27°C° 0.3 mm 4 mps 757 mmHg 64%
03:00 +27°C° 0.3 mm 4 mps 757 mmHg 65%
04:00 +27°C° 0.3 mm 3 mps 757 mmHg 65%
05:00 +27°C° 0.3 mm 3 mps 757 mmHg 64%
06:00 +27°C° 0.3 mm 3 mps 758 mmHg 64%
07:00 +28°C° 0.1 mm 3 mps 758 mmHg 59%
08:00 +30°C° 0.1 mm 3 mps 758 mmHg 54%
09:00 +31°C° 0.1 mm 3 mps 758 mmHg 49%
10:00 +34°C° 0 mm 2 mps 758 mmHg 45%
11:00 +35°C° 0 mm 2 mps 757 mmHg 41%
12:00 +36°C° 0 mm 2 mps 757 mmHg 37%
13:00 +37°C° 0 mm 2 mps 757 mmHg 36%
14:00 +38°C° 0 mm 2 mps 757 mmHg 34%
15:00 +39°C° 0 mm 2 mps 756 mmHg 33%
16:00 +38°C° 0 mm 3 mps 756 mmHg 34%
17:00 +38°C° 0 mm 4 mps 756 mmHg 35%
18:00 +37°C° 0 mm 5 mps 756 mmHg 37%
19:00 +36°C° 0.1 mm 6 mps 757 mmHg 42%
20:00 +34°C° 0.1 mm 6 mps 757 mmHg 48%
21:00 +32°C° 0.1 mm 7 mps 758 mmHg 53%
22:00 +30°C° 0.3 mm 6 mps 758 mmHg 56%
23:00 +29°C° 0.3 mm 5 mps 757 mmHg 59%

16 July, Thursday

Time Temperature Precipitation Wind Pressure Humidity
00:00 +28°C° 0.3 mm 4 mps 757 mmHg 63%
01:00 +28°C° 0.9 mm 4 mps 757 mmHg 65%
02:00 +27°C° 0.9 mm 3 mps 757 mmHg 68%
03:00 +27°C° 0.9 mm 3 mps 757 mmHg 70%
04:00 +27°C° 1.3 mm 3 mps 757 mmHg 72%
05:00 +27°C° 1.3 mm 3 mps 757 mmHg 74%
06:00 +27°C° 1.3 mm 3 mps 757 mmHg 75%
07:00 +28°C° 0.7 mm 3 mps 757 mmHg 68%
08:00 +30°C° 0.7 mm 3 mps 757 mmHg 61%
09:00 +31°C° 0.7 mm 3 mps 757 mmHg 53%
10:00 +33°C° 0 mm 3 mps 757 mmHg 48%
11:00 +35°C° 0 mm 3 mps 756 mmHg 43%
12:00 +36°C° 0 mm 3 mps 756 mmHg 38%
13:00 +37°C° 0 mm 4 mps 755 mmHg 36%
14:00 +38°C° 0 mm 4 mps 755 mmHg 35%
15:00 +38°C° 0 mm 4 mps 754 mmHg 33%
16:00 +38°C° 0 mm 4 mps 754 mmHg 34%
17:00 +38°C° 0 mm 4 mps 754 mmHg 34%
18:00 +37°C° 0 mm 4 mps 754 mmHg 35%
19:00 +35°C° 0.2 mm 5 mps 755 mmHg 40%
20:00 +33°C° 0.2 mm 5 mps 755 mmHg 45%
21:00 +32°C° 0.2 mm 6 mps 755 mmHg 49%
22:00 +30°C° 0.2 mm 5 mps 755 mmHg 52%
23:00 +29°C° 0.2 mm 4 mps 755 mmHg 56%
Show more